AO-07 1 07530U 74089B 17166.30821425 -.00000009 00000-0 10000-3 0 9993 2 07530 101.6295 135.0244 0012014 326.5406 33.5306 12.53627029948620 UO-11 1 14781U 84021B 17165.94091240 .00000131 00000-0 16179-4 0 9998 2 14781 97.6958 211.7378 0008122 204.8774 155.2698 14.82900240790014 LO-19 1 20442U 90005G 17166.39835626 .00000054 00000-0 19952-4 0 9998 2 20442 98.5706 102.9229 0012057 152.2496 207.9866 14.32861761431362 HUBBLE 1 20580U 90037B 17165.92068288 .00000492 00000-0 19355-4 0 9999 2 20580 028.4708 022.4969 0002850 146.6607 049.8244 15.08781490289859 MET-2/21 1 22782U 93055A 17165.98462814 .00000016 00000-0 14633-4 0 9993 2 22782 82.5482 25.3321 0023385 77.5962 282.8414 13.83800859201620 AO-27 1 22825U 93061C 17166.30348036 .00000069 00000-0 26788-4 0 9996 2 22825 98.8096 131.8557 0008348 338.1907 21.9416 14.29998088237132 IO-26 1 22826U 93061D 17166.33496531 .00000049 00000-0 19028-4 0 9991 2 22826 98.8044 131.9690 0008821 328.2046 31.9101 14.30326729237372 FO-29 1 24278U 96046B 17166.09341916 -.00000004 00000-0 00000 0 0 9996 2 24278 98.5600 49.6231 0350569 342.8725 16.1431 13.53076697 28594 NOAA-15 1 25338U 98030A 17166.25007647 .00000124 00000-0 52088-4 0 9997 2 25338 98.7836 177.1555 0010392 210.0176 150.0970 14.25798314993183 GO-32 1 25397U 98043D 17166.43781500 .00000086 00000-0 37937-4 0 9996 2 25397 98.6039 108.8026 0001282 16.0862 344.0874 14.23623461983590 ISS 1 25544U 98067A 17166.17096130 .00003656 00000-0 55267-4 0 9997 2 25544 51.6400 48.3770 0005452 275.1637 84.9415 15.54036761189753 NO-44 1 26931U 01043C 17166.14999560 .00000012 00000-0 45891-5 0 9998 2 26931 67.0498 96.4543 0005583 256.6674 103.3998 14.30463002820056 SO-50 1 27607U 02058C 17166.24072970 .00000446 00000-0 64785-4 0 9997 2 27607 64.5588 131.5126 0034676 97.6220 262.8715 14.75332184778822 CO-55 1 27844U 03031E 17166.24582448 .00000064 00000-0 28929-4 0 9994 2 27844 98.6910 175.2788 0009936 354.9650 5.1981 14.22040623724042 CO-57 1 27848U 03031J 17166.24507172 .00000064 00000-0 29220-4 0 9994 2 27848 98.7015 175.5373 0009822 5.8070 354.3774 14.21654912723924 RS-22 1 27939U 03042A 17166.32216780 .00000144 00000-0 25964-4 0 9998 2 27939 97.9390 311.1198 0012514 230.4146 129.6467 14.66569209733046 NOAA-18 1 28654U 05018A 17166.42512851 .00000006 00000-0 33299-5 0 9995 2 28654 99.1839 188.5955 0014827 77.4153 282.9250 14.12339221621977 CO-58 1 28895U 05043F 17166.32737642 .00000169 00000-0 32711-4 0 9993 2 28895 97.8649 328.7020 0017086 148.3462 211.9296 14.63399115620212 Falconsat-3 1 30776U 07006E 17166.14399641 .00002970 00000-0 92698-4 0 9990 2 30776 35.4354 79.5795 0004107 290.5827 69.4925 15.32250285567945 CO-65 1 32785U 08021C 17166.42696238 .00000663 00000-0 72368-4 0 9992 2 32785 97.5680 190.7792 0013354 170.8265 189.3821 14.87889176494639 AAUSAT2 1 32788U 08021F 17166.02341124 .00000135 00000-0 12675-4 0 9991 2 32788 97.5555 202.0884 0012375 136.1435 224.1413 14.93866564495356 DO-64 1 32789U 08021G 17166.09659929 .00002021 00000-0 14276-3 0 9998 2 32789 97.5579 224.3708 0013404 108.7807 251.5534 15.04872415496801 CO-66 1 32791U 08021J 17166.02817309 .00000129 00000-0 13270-4 0 9993 2 32791 97.5636 194.7568 0013536 157.6270 202.6173 14.90218232494826 RS-30 1 32953U 08025A 17166.11019836 -.00000081 00000-0 10000-3 0 9991 2 32953 82.4995 240.9429 0018027 289.5164 70.4520 12.43076637411164 PRISM 1 33493U 09002B 17166.15662201 .00001322 00000-0 11868-3 0 9992 2 33493 98.1675 48.5033 0016245 90.2193 270.1547 14.95670414455477 NOAA-19 1 33591U 09005A 17166.28509918 .00000221 00000-0 12032-3 0 9994 2 33591 99.0914 133.0778 0013587 278.3134 81.6985 14.12188205430956 TISAT-1 1 36799U 10035E 17166.26414159 -.00000610 00000-0 00000 0 0 9993 2 36799 98.0559 288.9466 0012360 335.5318 24.5850 14.90387429375494 JUGNU 1 37839U 11058B 17165.95486243 .00000300 00000-0 17793-4 0 9990 2 37839 019.9611 104.0106 0019077 158.3978 267.9696 14.12585101293272 SRMSAT 1 37841U 11058D 17166.14300653 .00000028 00000-0 15701-4 0 9999 2 37841 19.9737 144.5422 0011842 61.0183 299.1782 14.10575989292996 AO-71 1 37854U 11061E 17166.32294260 .00002064 00000-0 10919-3 0 9990 2 37854 101.7028 39.0008 0167007 80.6226 281.4451 15.04071967306658 HRBE 1 37855U 11061F 17166.26506571 .00001652 00000-0 85750-4 0 9993 2 37855 101.7150 36.7186 0180154 87.2440 275.0000 15.03029605306509 ALMASAT-1 1 38078U 12006B 17166.17952453 .00018738 00000-0 19811-3 0 9992 2 38078 69.4403 137.7255 0311832 293.6648 63.2431 15.22035518284487 HORYU-2 1 38340U 12025D 17166.45956807 .00000718 00000-0 10583-3 0 9999 2 38340 98.3771 170.3185 0011136 297.7199 62.3450 14.75340345273037 RS-40 1 38735U 12041C 17166.27771221 .00000011 00000-0 10000-3 0 9990 2 38735 82.4776 325.3754 0016849 34.0270 326.2303 12.42574373221467 BEESAT-3 1 39134U 13015E 17166.37214826 .00001182 00000-0 57401-4 0 9997 2 39134 64.8670 232.3254 0030274 267.3331 92.4335 15.17791934229203 BEESAT-2 1 39136U 13015G 17166.32786715 .00001008 00000-0 53028-4 0 9993 2 39136 64.8693 243.1290 0026916 284.5089 75.3052 15.15078499228992 ZACUBE-1 1 39417U 13066B 17166.33556498 .00000220 00000-0 27836-4 0 9998 2 39417 97.6293 208.6676 0058696 276.2521 83.2658 14.80706855192509 TRITON-1 1 39427U 13066M 17166.28102975 .00000277 00000-0 44263-4 0 9995 2 39427 97.6389 181.7633 0114729 355.2946 4.7764 14.67456335190941 GOMX-1 1 39430U 13066Q 17166.45758559 .00000406 00000-0 73763-4 0 9994 2 39430 97.6674 165.6235 0152544 48.7666 312.7105 14.58866772189681 LO-74 1 39440U 13066AA 17166.34584552 .00000212 00000-0 29610-4 0 9990 2 39440 97.6295 197.8679 0080400 306.7100 52.7377 14.75448260191829 AO-73 1 39444U 13066AE 17166.04597435 .00000290 00000-0 35994-4 0 9993 2 39444 97.6303 209.4416 0057992 274.0653 85.4586 14.81439289715108 SPROUT 1 39770U 14029E 17166.21130122 .00000782 00000-0 88979-4 0 9997 2 39770 97.8696 265.5975 0008891 339.5668 20.5776 14.86229020165843 DUCHIFAT-1 1 40021U 14033M 17166.21654899 .00000587 00000-0 61009-4 0 9993 2 40021 97.9154 79.3727 0012657 310.3871 49.6855 14.89887053162338 NANOSATCBR1 1 40024U 14033Q 17166.21773454 .00000472 00000-0 49893-4 0 9995 2 40024 97.9097 78.2638 0012013 311.3424 48.7375 14.89212345162251 EO-79 1 40025U 14033R 17165.99451249 .00000425 00000-0 45766-4 0 9998 2 40025 97.9077 77.0852 0012273 314.7191 45.3643 14.88416707162169 DTUSAT-2 1 40030U 14033W 17166.20090552 .00000496 00000-0 53935-4 0 9990 2 40030 97.9041 76.4083 0011666 308.2140 51.8645 14.88041433162155 EO-80 1 40032U 14033Y 17166.31028821 .00000202 00000-0 21969-4 0 9991 2 40032 97.9066 76.5238 0011545 308.8524 51.2280 14.87973115162165 ANTELSAT 1 40034U 14033AA 17166.45043204 .00000255 00000-0 38084-4 0 9994 2 40034 97.8560 50.4299 0058620 298.8584 60.7405 14.73695786160669 VELOX-1 1 40057U 14034E 17166.26583550 .00000363 00000-0 51375-4 0 9990 2 40057 98.1864 266.4520 0011640 67.3637 292.9379 14.77120206159470 DAURIA DX 1 1 40071U 14037C 17166.37478848 .00000161 00000-0 20747-4 0 9999 2 40071 98.3355 277.3683 0009031 61.3612 298.9060 14.81016268158932 UKUBE-1 1 40074U 14037F 17166.13454990 .00000333 00000-0 40464-4 0 9997 2 40074 98.3448 280.9577 0005165 62.8739 297.3548 14.83496816158870 HODOYOSHI-1 1 40299U 14070B 17166.33381013 .00000771 00000-0 33467-4 0 9991 2 40299 97.4004 249.0996 0014167 97.9201 262.4282 15.22250313144779 CHUBUSAT-1 1 40300U 14070C 17166.36276954 .00000827 00000-0 37277-4 0 9999 2 40300 97.3929 246.2894 0021409 107.0043 253.4183 15.20849303144532 QSAT-EOS 1 40301U 14070D 17166.40785818 .00001832 00000-0 76715-4 0 9996 2 40301 97.3869 246.3814 0028579 103.1369 257.3701 15.23175733144566 FIREBIRD FU3 1 40377U 15003B 17166.42532154 .00001614 00000-0 67514-4 0 9996 2 40377 99.1241 350.0282 0136495 8.2605 352.1399 15.15350902130746 FIREBIRD FU4 1 40378U 15003C 17166.35154387 .00001597 00000-0 66764-4 0 9993 2 40378 99.1237 349.9761 0136538 8.4912 351.9155 15.15372428130735 GRIFEX 1 40379U 15003D 17166.33324828 .00001382 00000-0 61075-4 0 9993 2 40379 99.1265 347.7436 0142273 16.0793 344.5447 15.12937212130600 NO-84 1 40654U 15025D 17165.50594038 .00006228 00000-0 12300-3 0 04752 2 40654 054.9976 248.6064 0178090 258.7606 099.3392 15.33390572079481 NO-83 1 40655U 15025E 17165.41976867 .00010797 00000-0 17028-3 0 05273 2 40655 054.9835 224.7728 0146157 272.6381 085.8005 15.42938673079797 DEORBITSAIL 1 40719U 15032E 17165.95243527 .00000444 00000-0 64340-4 0 9992 2 40719 97.9762 59.7300 0016565 149.2836 210.9989 14.76053264103991 NUDT-PHONESAT 1 40900U 15049B 17166.26203851 .00001952 00000-0 92185-4 0 9996 2 40900 97.4452 174.2110 0013216 230.4104 129.6569 15.19372215 96165 XW-2A 1 40903U 15049E 17166.17034123 .00001841 00000-0 48029-4 0 9998 2 40903 97.4232 191.8497 0013973 274.3028 85.7270 15.38719076 97331 XW-2C 1 40906U 15049H 17166.19268220 .00000752 00000-0 40785-4 0 9991 2 40906 97.4566 171.7219 0014634 219.4559 140.6206 15.14525525 95939 XW-2D 1 40907U 15049J 17166.17622250 .00000851 00000-0 46022-4 0 9997 2 40907 97.4534 171.4685 0013864 217.8571 142.2284 15.14628722 95992 LILACSAT-2 1 40908U 15049K 17166.23735328 .00000439 00000-0 24745-4 0 9996 2 40908 97.4642 171.3068 0015556 215.4984 144.5810 15.13111672 95832 XW-2F 1 40910U 15049M 17166.24567466 .00001148 00000-0 60528-4 0 9993 2 40910 97.4558 172.2179 0014854 214.8959 145.1900 15.15503713 95895 XW-2B 1 40911U 15049N 17166.31439830 .00000842 00000-0 45580-4 0 9996 2 40911 97.4580 171.9796 0013764 217.7202 142.3665 15.14591345 95854 DCBB 1 40912U 15049P 17166.22438906 .00001171 00000-0 58166-4 0 9990 2 40912 97.4538 174.0322 0015178 206.7522 153.3534 15.17599511 95999 TW-1C 1 40926U 15051B 17166.36548898 .00006370 00000-0 14611-3 0 9997 2 40926 97.2308 205.9407 0012075 171.1057 189.1077 15.42652728 96646 TW-1A 1 40928U 15051D 17166.24748943 .00002807 00000-0 79808-4 0 9990 2 40928 97.2282 202.0987 0012261 201.4755 158.6641 15.36080120 96405 IO-86 1 40931U 15052B 17166.28566191 .00000041 00000-0 57659-5 0 9991 2 40931 5.9995 246.2621 0012952 219.6172 140.3638 14.76529298 92689 GomX-3 1 40949U 98067HA 16292.18357804 .08527750 12374-4 77882-3 0 9992 2 40949 51.6055 106.7696 0006699 286.1344 73.8944 16.38002265 59645 LQSat 1 40958U 15057A 17166.34597848 .00000068 00000-0 10504-4 0 9991 2 40958 97.9751 241.6972 0018868 72.9692 287.4207 14.72968013 90902 AO-85 1 40967U 15058D 17165.39032362 .00000065 00000-0 26957-4 0 05151 2 40967 064.7768 227.3622 0172192 078.9849 283.0556 14.75426604076705 ATHENOXAT-1 1 41168U 15077C 17166.14123310 .00001161 00000-0 66152-4 0 9999 2 41168 14.9892 184.3745 0012177 349.5860 10.4695 15.11567863 82738 ChubuSat-2 1 41338U 16012B 17166.22249668 .00000244 00000-0 19245-4 0 9994 2 41338 31.0059 124.7443 0013494 40.8168 319.3877 14.99741365 72659 ChubuSat-3 1 41339U 16012C 17166.15097888 .00000223 00000-0 17496-4 0 9995 2 41339 31.0118 124.3421 0013470 47.2569 312.9599 14.99946766 72661 Horyu-4 1 41340U 16012D 17165.92597917 .00000390 00000-0 30084-4 0 9992 2 41340 31.0075 123.2829 0013915 53.0278 307.2030 15.00594117 72671 OUFTI-1 1 41458U 16025C 17166.38054003 .00001904 00000-0 10082-3 0 9998 2 41458 98.1848 203.8560 0174305 295.6520 62.7448 15.03169241 62309 e-st@r-II 1 41459U 16025D 17166.06839413 .00000324 00000-0 17201-4 0 9996 2 41459 98.1857 203.4805 0174869 297.2976 61.1195 15.02999953 62252 AAUSAT4 1 41460U 16025E 17166.39976921 .00000863 00000-0 45912-4 0 9998 2 41460 98.1789 203.9284 0167416 294.4709 63.9794 15.03884384 62366 MinXSS 1 41474U 98067HU 17125.52237589 .05724416 12300-4 86147-3 0 9995 2 41474 051.6449 208.6967 0008167 329.0747 030.9230 16.33400422055623 CADRE 1 41475U 98067HV 17003.74787607 .12518598 12537-4 55989-3 0 9998 2 41475 51.6110 110.0165 0004040 312.3134 47.7551 16.43344525 36494 NODES 1 1 41477U 98067HX 17166.43352199 .00064678 00000-0 30755-3 0 9994 2 41477 51.6294 12.3386 0001893 151.9760 208.2032 15.82154670 61794 NODES 2 1 41478U 98067HY 17166.41155661 .00061355 00000-0 29940-3 0 9991 2 41478 51.6329 12.9699 0002333 160.1590 200.0192 15.81598152 61782 LO-87 1 41557U 16033B 17166.11349462 .00001379 00000-0 51897-4 0 9990 2 41557 97.4597 245.6277 0014651 17.5093 342.7295 15.27035321 58116 NuSat2 1 41558U 16033C 17166.14629995 .00001268 00000-0 47899-4 0 9990 2 41558 97.4626 245.7127 0014267 16.5094 343.7253 15.26906087 58118 Lapan A3 1 41603U 16040E 17166.38090801 .00000245 00000-0 11576-4 0 9990 2 41603 97.4598 228.3868 0014444 80.5981 279.7549 15.19349444 54638 Swayam 1 41607U 16040J 17166.41935502 .00001660 00000-0 75250-4 0 9995 2 41607 97.4595 228.7143 0015156 83.3923 276.9700 15.20768717 54512 Pratham 1 41783U 16059A 17166.38248757 .00000105 00000-0 20429-4 0 9996 2 41783 98.1645 227.7732 0033755 165.8137 194.4657 14.62838021 38554 AlSat 1N 1 41789U 16059G 17166.37253093 .00000103 00000-0 19455-4 0 9995 2 41789 98.1652 228.2622 0028719 159.5555 200.7440 14.64048396 38348 ScatSat 1 41790U 16059H 17165.98647752 .00000079 00000-0 20333-4 0 9991 2 41790 98.0631 216.1251 0011373 151.2276 209.0183 14.50109690 37948 TY-1 1 41844U 16066D 17166.22417498 .00000941 00000-0 41103-4 0 9995 2 41844 97.4077 173.4098 0015126 245.4409 114.5855 15.22032771 33029 CAS-2T 1 41845U 16066E 17166.30738994 .00000114 00000-0 17168-4 0 9998 2 41845 98.7790 181.8954 0366449 253.8338 102.2847 14.37755252 31317 Pegasus-1 1 41846U 16066F 17166.29085087 .00000290 00000-0 44212-4 0 9990 2 41846 98.7825 181.6705 0369043 255.1513 100.9144 14.37015858 31206 STARS-C 1 41895U 98067KR 17166.29203389 .00022759 00000-0 26026-3 0 9998 2 41895 51.6392 43.1861 0004039 302.3969 57.7323 15.61475504 27695 Tancredo 1 1 41931U 98067KT 17165.93291381 .00045073 00000-0 41002-3 0 9993 2 41931 51.6368 42.2645 0005412 251.0869 109.0233 15.67236273 23246 TO-89 1 41932U 98067KU 17165.96430743 .00011988 00000-0 14985-3 0 9992 2 41932 51.6408 46.2567 0005624 259.6775 100.4272 15.59143572 23499 AOBA-V3LOX3 1 41935U 98067KX 17166.01921045 .00013359 00000-0 16513-3 0 9995 2 41935 51.6415 45.8745 0004887 259.1010 101.0121 15.59442818 23686 OSNSAT 1 41939U 98067KZ 17166.02393972 .00025318 00000-0 26885-3 0 9993 2 41939 51.6398 43.6401 0005898 256.6878 103.4150 15.63362319 22557 EO-88 1 42017U 17008BX 17166.39770711 .00001533 00000-0 65328-4 0 9996 2 42017 97.4940 227.8563 0006052 221.5272 138.6172 15.22959335 18692 SOMP2 1 42700U 98067LH 17165.88908696 .00012617 00000-0 17992-3 0 9995 2 42700 51.6383 49.4933 0006743 314.7731 45.3395 15.55618619 4313 HAVELSAT 1 42701U 98067LJ 17165.88960126 .00010596 00000-0 15146-3 0 9995 2 42701 51.6402 49.4951 0006754 313.9186 46.1932 15.55553401764645 Columbia 1 42702U 98067LK 17166.26988977 .00022711 00000-0 31728-3 0 9999 2 42702 51.6396 47.5348 0006665 306.9149 53.1917 15.56173439195323 PHOENIX 1 42706U 98067LP 17165.95409380 .00011861 00000-0 16944-3 0 9991 2 42706 51.6398 49.1736 0001925 295.1736 64.9740 15.55595737835315 X-CubeSat 1 42707U 98067LQ 17165.89015197 .00011618 00000-0 16606-3 0 9999 2 42707 51.6396 49.4993 0002246 291.6868 68.4568 15.55578907 4388 qbee 1 42708U 98067LR 17165.89067056 .00011686 00000-0 16726-3 0 9999 2 42708 51.6390 49.5027 0002045 287.6714 72.4739 15.55543915 4548 ZA-AeroSat 1 42713U 98067LU 17165.89431977 .00010260 00000-0 14801-3 0 9991 2 42713 51.6398 49.5255 0003011 244.2765 115.8600 15.55328552 4248 LINK 1 42714U 98067LV 17166.28004325 .00011529 00000-0 16609-3 0 9996 2 42714 51.6396 47.6026 0002948 252.4770 107.6584 15.55363703 4424 UPSat 1 42716U 98067LX 17165.89179919 .00013414 00000-0 19173-3 0 9990 2 42716 51.6390 49.5111 0005198 315.9233 44.2028 15.55567506 4364 SpaceCube 1 42717U 98067LY 17166.08589251 .00011469 00000-0 16469-3 0 9990 2 42717 51.6401 48.5566 0005079 317.3226 42.8055 15.55442754 3457 Hoopoe 1 42718U 98067LZ 17165.89274326 .00012390 00000-0 17758-3 0 9999 2 42718 51.6397 49.5152 0005310 314.2596 45.8644 15.55492668 3599 UNSW-EC0 1 42721U 98067MA 17166.09266066 .00015141 00000-0 21821-3 0 9991 2 42721 51.6413 48.6056 0007456 282.0885 77.9954 15.55324819 3256 NJUST-1 1 42722U 98067MB 17166.22300957 .00009698 00000-0 14102-3 0 9999 2 42722 51.6392 47.9732 0007926 298.7511 61.3368 15.55078424 3207 Challenger 1 42723U 98067MC 17165.64421441 .00011974 00000-0 17366-3 0 9992 2 42723 51.6392 50.8588 0007960 296.9199 63.1661 15.55148415 3169 DUTHsat 1 42724U 98067MD 17166.09406898 .00015323 00000-0 22173-3 0 9996 2 42724 51.6406 48.6144 0006985 297.8173 62.2794 15.55220864 3152 LilacSat-1 1 42725U 98067ME 17166.28818706 .00009926 00000-0 14467-3 0 9992 2 42725 51.6403 47.6598 0006954 299.5483 60.5499 15.55023441 3189 nSIGHT1 1 42726U 98067MF 17165.90351383 .00006475 00000-0 94818-4 0 9999 2 42726 51.6394 49.5847 0007347 302.4199 57.6764 15.54892516 3135 QBITO 1 42728U 98067MH 17166.03003402 .00011762 00000-0 17082-3 0 9994 2 42728 51.6406 48.9350 0004218 314.1789 45.9539 15.55141047 3195 Aalto-2 1 42729U 98067MJ 17166.02996461 .00012017 00000-0 17448-3 0 9990 2 42729 51.6413 48.9364 0003824 304.5982 55.5332 15.55149911 2666 SUSat 1 42730U 98067MK 17166.03043819 .00012233 00000-0 17784-3 0 9996 2 42730 51.6414 48.9387 0003890 303.6078 56.5226 15.55114470 2950 i-INSPIRE II 1 42731U 98067ML 17166.02975600 .00013552 00000-0 19622-3 0 9996 2 42731 51.6389 48.9327 0007953 247.2079 112.8756 15.55193958 2945 PolyITAN-2-SAU 1 42732U 98067MM 17166.02966287 .00011516 00000-0 16673-3 0 9999 2 42732 51.6389 48.9350 0008382 246.0424 114.0373 15.55191690 2377 SNUSAT-1 1 42733U 98067MN 17166.22316786 .00011157 00000-0 16195-3 0 9995 2 42733 51.6361 47.9759 0007784 248.8871 111.1972 15.55126186 3036 ExAlta-1 1 42734U 98067MP 17166.02977074 .00012866 00000-0 18616-3 0 9995 2 42734 51.6389 48.9308 0009488 272.5069 87.5520 15.55196856 2859 Aoxiang-1 1 42735U 98067MQ 17165.90182140 .00009575 00000-0 13901-3 0 9999 2 42735 51.6394 49.5725 0008733 292.3833 67.6915 15.55113617 4322 BeEagleSat 1 42736U 98067MR 17166.03067910 .00009697 00000-0 14089-3 0 9995 2 42736 51.6412 48.9402 0008394 292.8018 67.2769 15.55094721 3069 Atlantis 1 42737U 98067MS 17165.89989059 .00019693 00000-0 28222-3 0 9997 2 42737 51.6385 49.5623 0008563 289.3230 70.7519 15.55466323 3025 Object A 1 42758U 17034A 17166.44020951 .00000000 00000-0 00000 0 0 9996 2 42758 43.0132 296.0634 0006996 337.6257 22.4799 15.08374244 50 Object B 1 42759U 17034B 17166.44014948 -.00077158 00000-0 00000 0 0 9995 2 42759 43.0111 296.0584 0007012 333.6014 26.4991 15.08628895 40 Object C 1 42760U 17034C 17166.44015010 .00000000 00000-0 00000 0 0 9999 2 42760 43.0156 296.0555 0006945 344.9860 15.1295 15.08497794 52 Object D 1 42761U 17034D 17166.44008307 .00000000 00000-0 00000 0 0 9991 2 42761 43.0142 296.0593 0008314 328.2359 31.8502 15.08952386 37 /EX